Dewpoint
39 39 36 33 34 33 31 29 28 27 22 23 23 28 29 29 31 31 29 31 27 27 26 27 28 29 30 31 31 32 32 33 33 33 33 34 34 34
36 37 36 34 34 33 31 30 28 27 25 24 23 26 28 26 29 27 26 28 28 27 24 26 28 29 30 30 30 30 31 32 32 33 33 34 35 35
36 36 35 35 34 33 32 30 29 28 25 25 24 26 29 29 26 27 26 24 22 27 24 25 27 27 27 27 28 29 29 29 30 30 31 32 33 34
35 35 35 31 34 34 31 31 29 28 26 26 28 26 29 28 26 26 21 17 18 22 25 24 26 25 26 26 27 27 28 28 28 29 29 30 31 32
35 34 34 34 33 32 31 29 28 24 26 26 26 26 26 26 23 24 22 21 15 22 25 25 24 22 25 26 26 27 27 28 28 28 29 29 30 30
34 34 34 33 33 32 29 29 27 26 27 27 26 28 25 24 23 19 18 17 15 12 20 24 23 23 25 26 25 26 26 27 28 28 29 31 32 31
32 32 34 34 36 34 28 28 28 26 27 27 29 26 21 19 19 18 17 16 17 19 18 18 19 19 20 23 23 25 25 26 27 28 29 30 32 32
30 30 30 33 33 34 34 33 32 28 29 30 27 25 22 20 22 20 19 17 17 20 19 19 18 18 19 19 26 24 25 26 27 28 29 30 32 32
28 28 26 23 30 30 31 33 33 33 32 31 29 26 26 26 24 20 17 16 16 18 19 19 21 20 21 16 27 25 25 27 29 30 30 32 32 32
29 29 30 30 30 30 29 28 27 26 28 26 26 24 23 24 22 20 20 21 21 19 20 22 21 21 22 21 25 25 26 27 28 29 30 32 32 33
29 30 29 30 30 33 31 30 28 26 27 29 29 29 26 25 25 24 23 23 23 20 20 20 21 19 19 22 25 26 26 29 29 30 30 30 31 32
32 32 31 30 30 31 33 33 32 27 26 27 25 25 27 26 26 24 23 23 21 20 19 19 16 16 20 21 23 23 26 27 30 31 32 32 31 31
28 29 32 31 31 32 32 32 32 30 28 29 26 25 23 23 22 24 23 24 23 21 19 19 19 17 18 19 21 22 24 30 29 32 31 32 31 31
27 28 29 31 32 32 33 31 31 31 34 33 30 27 26 25 23 25 25 25 24 22 19 24 23 20 19 19 18 20 23 29 33 32 32 33 32 33
31 31 29 30 31 32 32 31 31 33 33 33 31 29 27 27 26 26 25 24 23 23 20 23 22 20 20 19 19 21 23 25 29 32 32 32 32 32
31 32 32 30 30 32 33 33 34 34 32 32 31 28 28 31 28 26 25 24 25 24 21 22 21 21 20 19 18 19 19 23 28 30 30 32 33 32
31 33 32 31 30 30 32 33 33 31 30 31 29 28 29 29 28 28 25 23 22 20 19 19 19 20 20 19 20 19 20 25 28 28 28 28 29 34
28 30 32 34 32 30 32 32 31 31 28 28 30 28 27 28 27 28 25 23 22 20 18 17 18 20 19 21 24 22 26 28 29 26 26 28 28 31
23 23 25 26 28 28 32 32 32 30 33 31 30 29 28 27 29 26 26 23 22 20 19 19 19 17 16 20 22 25 23 25 25 26 26 28 28 29
18 19 21 22 21 21 23 25 30 31 32 31 32 31 31 29 28 24 24 24 22 20 16 15 16 15 17 20 22 25 25 26 26 26 26 26 29 28
15 15 17 17 18 19 22 23 26 28 32 32 31 30 31 29 27 25 24 23 22 18 16 16 16 17 15 22 23 25 31 26 27 27 25 25 25 26
15 13 14 15 17 18 20 21 22 23 25 30 31 31 31 30 27 26 25 25 21 19 17 17 16 12 17 19 21 25 29 29 27 25 27 26 26 23
14 13 13 14 15 16 16 17 18 20 21 23 25 30 31 30 28 27 26 24 21 19 17 16 14 12 15 15 20 22 26 26 26 24 30 26 26 26
Lifted_Index
11 11 11 11 11 11 11 11 11 10 10 9 8 8 8 7 7 7 7 8 9 10 10 10 10 10 9 8 8 7 7 7 7 7 6 6 7 7
11 11 11 11 11 11 11 11 10 10 10 9 8 7 7 6 6 7 7 8 9 9 10 10 10 9 9 8 8 7 7 7 7 7 6 6 6 7
11 11 11 10 10 10 10 10 10 10 9 8 7 6 5 6 6 7 7 8 8 9 9 9 9 9 8 8 8 8 8 8 8 7 7 7 7 7
11 10 10 10 10 10 10 10 9 9 8 7 6 5 5 6 6 7 7 8 8 8 9 9 9 8 8 8 8 8 9 9 9 9 9 8 8 8
11 10 10 10 9 9 9 9 9 8 7 6 6 5 5 6 6 7 7 7 7 8 8 8 8 8 8 8 9 9 9 9 9 9 9 9 9 9
11 10 10 9 9 9 9 9 9 8 6 6 6 5 6 6 6 7 7 7 7 7 7 7 7 7 7 8 8 9 10 10 10 10 9 9 9 10
11 10 10 10 10 10 10 9 8 7 6 6 6 6 6 6 6 6 7 7 7 7 6 6 6 6 7 7 8 9 9 10 10 9 9 9 9 9
11 11 10 10 10 10 10 9 8 7 6 6 6 6 6 6 6 6 6 7 6 6 6 6 6 6 6 7 8 9 9 9 9 9 9 9 9 9
11 11 10 10 10 9 9 8 7 7 6 6 6 6 6 6 6 6 7 7 7 6 6 6 6 6 6 7 7 8 8 8 8 8 8 8 8 8
11 11 10 10 9 8 8 7 7 7 7 7 6 6 6 6 6 6 7 7 7 6 6 6 6 6 6 7 7 7 7 7 7 7 7 7 8 8
11 11 10 10 9 8 7 7 6 6 6 7 6 6 6 7 7 7 7 7 7 6 6 6 6 6 6 6 7 7 7 7 7 7 7 7 7 7
11 11 10 10 9 8 7 7 6 6 6 6 6 6 6 7 7 7 7 7 7 6 6 6 7 7 7 7 7 7 7 6 6 6 6 6 6 6
12 12 11 10 9 8 7 7 6 6 5 5 5 5 6 6 6 7 7 7 7 7 7 7 7 7 7 7 7 7 7 6 6 5 5 5 5 5
13 12 11 10 9 8 7 7 6 5 4 4 4 4 5 5 6 6 6 6 7 7 7 8 8 8 8 8 7 7 7 7 6 5 4 4 4 4
13 12 11 10 9 8 7 6 6 5 4 3 3 3 4 5 5 6 6 6 7 7 8 8 8 8 8 8 8 7 7 7 6 5 4 4 3 3
12 11 10 9 9 8 6 6 5 5 3 3 3 3 3 4 5 5 6 6 7 7 7 8 8 8 9 8 8 8 7 7 6 5 4 4 3 2
11 10 9 8 8 7 6 5 5 4 4 3 3 3 3 4 5 5 5 6 6 7 7 7 8 8 8 8 8 8 7 6 5 5 4 4 2 2
10 10 8 8 7 6 5 5 5 4 4 4 3 3 4 4 5 5 5 6 6 7 7 7 8 8 8 8 7 7 7 6 5 5 4 4 3 2
11 10 9 8 7 6 5 5 5 4 4 4 4 4 4 4 4 5 5 6 6 6 7 7 7 8 7 7 7 7 7 6 5 5 4 4 3 3
12 11 10 9 8 7 7 6 5 5 4 4 4 4 4 4 4 5 5 5 6 6 7 7 7 8 8 7 6 6 6 6 6 5 5 4 3 3
12 12 12 11 9 9 8 7 6 5 4 4 4 4 4 4 4 4 5 5 6 6 7 7 7 8 8 7 6 6 6 6 6 5 5 5 4 4
13 13 12 11 11 10 9 8 7 5 5 4 4 4 3 3 3 4 5 5 6 6 7 7 8 8 8 7 6 6 5 5 6 6 6 5 5 5
13 13 12 12 11 11 10 9 7 5 4 4 4 3 3 3 3 4 5 5 6 6 7 7 8 8 8 7 6 6 5 5 6 5 6 6 6 5